Regional Weather Roundup
Issued by NWS Key West, FL

Home | Current Version | Previous Version | Text Only | Print | Product List | Glossary On
Versions: 1 2 3 4 5 6 7 8 9 10 11 12 13 14 15 16 17 18 19 20 21 22 23 24 25 26 27 28 29 30 31 32 33 34 35 36 37 38 39 40 41 42 43 44 45 46 47 48 49 50
000
ASUS42 KKEY 152311
RWRKEY

FLORIDA KEYS REGIONAL WEATHER ROUNDUP
NATIONAL WEATHER SERVICE KEY WEST FLORIDA
700 PM EDT TUE JUN 15 2021

...FLORIDA KEYS...

CITY           SKY/WX    TMP DP  RH WIND       PRES   REMARKS
KEY WEST         N/A    N/A N/A N/A MISG      30.02R
MARATHON       PTSUNNY   85  76  74 SE6       30.00S HX  94

...SOUTH FLORIDA...

CITY           SKY/WX    TMP DP  RH WIND       PRES   REMARKS
HOMESTEAD      PTSUNNY   81  72  74 N7        30.03R
WEST KENDALL   CLOUDY    78  72  81 N9        30.03R
MIAMI          CLOUDY    76  73  91 NE6       30.04R
OPA LOCKA      LGT RAIN  74  70  87 E7        30.04S
PEMBROKE PINES RAIN      71  70  96 E5        30.06R
FT LAUDERDALE  LGT RAIN  74  74 100 CALM      30.04F
FT LAUD EXEC   RAIN      73  72  96 SW6       30.04R
POMPANO BEACH  LGT RAIN  69  69 100 SW8       30.05R FOG
BOCA RATON     LGT RAIN  73  72  94 SW12      30.04R
WEST PALM BCH  PTSUNNY   77  70  79 SW16      30.03R

...SOUTHWEST FLORIDA...

CITY           SKY/WX    TMP DP  RH WIND       PRES   REMARKS
MARCO ISLAND   NOT AVBL
NAPLES         PTSUNNY   84  77  79 SW8       30.01R HX  94
FT MYERS-SW AP PTSUNNY   84  70  62 SW9       30.00R
FORT MYERS     PTSUNNY   85  75  72 S9        29.99S HX  93

...ADJACENT COASTAL WATERS...

STATION/POSITION TIME  SKY/WX   TEMP    WIND        PRES    WAVE
                                AIR SEA DIR/SP/G            HT/PER
                 (UTC)          (F)     (DEG/KT/KT) (MB)    (FT/S)
PULASKI SHOAL LT NOT AVBL
SAND KEY         2250            83     150/  5/  6 1016.8R
SOMBRERO KEY     2250                   130/  8/ 10 1015.0S
LONG KEY         2250                               1015.8R
FOWEY ROCKS      2200            83 82  170/ 14/ 14 1016.6R
SATAN SHL BUOY   2230            82 83                N/A     2/ 5
LOOP CURR BUOY   2200            83 83   80/  2/  2 1016.1R
PULLEY RDG BUOY  2256               83                N/A     1/ 5

...INTERNATIONAL WEATHER...

CITY           SKY/WX    TMP DP  RH WIND       PRES   REMARKS
NASSAU         LGT RAIN  82  75  78 S6        30.05S
HAVANA         CLOUDY    84  75  74 SE5       29.97S HX  92
VARADERO       PTSUNNY   81  79  94 E5        30.00S
CANCUN         CLOUDY    81  77  89 SE5       29.90S
COZUMEL        CLOUDY    82  75  78 E10       29.87S
KINGSTON       PTCLDY    84  75  74 SE16      29.97S HX  92
BELIZE CITY    MOSUNNY   84  81  89 SE2       29.81R HX  98

$$



USA.gov is the U.S. government's official web portal to all federal, state and local government web resources and services.